STARLINK-4013, 52604

Orbit data source: Space-Track

STARLINK-4013, 52604 is a payload satellite owned by SpaceX/Seattle (US) in LEO that was launched on Sat, 14 May 2022 UTC via an FALCON 9 launch vehicle from the Air Force Eastern Test Range (AFETR). Payload-class satellites include a variety of spacecraft equipped with specific instruments for various scientific and technological missions. These include communications satellites like Starlink; space stations such as the ISS; scientific satellites like the Hubble; Earth observation satellites from companies like Planet Labs, Umbra, and HawkEye 360; GPS; miniature CubeSats for education and research; and military/defense satellites.

Loading next visibility...
Identifier
52604, 2022-052G
Orbit
LEO
Country
Flag of USUS
Related business
Manufacturer
SpaceX/Seattle
Mission
Operational Commercial Communications
Bus & Motor
STARLINK, Unknown motor
Mass
297 kg wet, ~275 kg dry
Launch date (UTC)
2022-05-14 (4 years ago)
Launch vehicle
FALCON 9
Launch site
Air Force Eastern Test Range (AFETR)
Object type
Payload
Rocket body
Debris
Shape & HBR
Box + 1 Pan, 10.1 m
Radar Cross Section
13.562 m², Large (>1 m²)

Expand to show TLE details & history
Last TLE update: 2 days ago

TLE from 2 days ago
0 STARLINK-4013
1 52604U 22052G   26171.39415683 -.00001030  00000-0 -46616-4 0  9997
2 52604  53.1588 177.9454 0001920  66.6047 293.5146 15.08824825226369
Epoch: 2026-06-20T09:27Z
TLE epoch observation values (Epoch: 2026-06-20T09:27:35.150Z)
Latitude
-0.00002°
Longitude
127.43952°
Altitude
540.151 km
Speed
7.594 km/s
True Right ascension
11h 51m 46s
True Declination
0° 00' 00"
Sunlit
Object was in daylight at epoch
Visualization orbit readout
Latitude
Unknown
Longitude
Unknown
Altitude
Unknown
Speed
Unknown
Apparent Right ascension
Unknown
Apparent Declination
Unknown
Sunlit
N/A
Visualization observer readout
Local Sidereal Time
21:24:30
Azimuth
Unknown
Elevation
Unknown
Doppler factor
Unknown
Orbital elements
Apogee altitude
541.372 km
Perigee altitude
538.716 km
Semi-major axis
6,918.181 km
Eccentricity
0.00019
Inclination
53.1588°
RAAN
177.9454°
Arg. of periapsis
66.6047°
True anomaly
293.49442°
Mean anomaly
293.5146°
Eccentric anomaly
293.50451°
Mean motion
3.77186 °/min
Orbital period
95.44 mins
BSTAR
-0.000046616
Loading maneuver chart data...
Computing Atmospheric mass density...
Loading historical data...
Loading historical data...
Loading historical data...
Loading historical data...
Loading historical data...
Loading historical data...
Loading historical data...

Documentation

Showing up to 5 results
|